Wind_Speed
22 22 21 21 23 20 18 19 19 18 18 17 15 14 13 12 11 9 8 7 6 5 4 4 5 6 6 6 7 8 9 9 10 9 9 9 9 9 10 10 10 10 10 10 10 10 9 8 8
22 22 22 23 22 18 19 19 19 19 18 17 16 15 15 13 12 10 9 8 7 5 4 4 5 6 6 7 7 8 8 9 9 9 9 10 9 10 10 10 10 11 11 10 10 10 9 8 8
22 22 23 23 21 20 20 20 20 19 19 18 17 16 15 14 13 11 10 8 6 5 4 4 5 6 6 7 7 7 8 7 8 8 9 9 9 10 10 10 10 11 10 9 9 9 8 8 7
21 23 24 23 21 21 21 21 21 21 20 19 18 17 16 15 14 12 11 9 7 6 5 5 5 5 6 6 7 7 7 7 8 9 9 9 9 10 10 10 10 10 9 9 9 8 7 7 6
21 23 23 21 21 22 22 21 21 22 21 20 19 18 17 16 15 13 12 11 9 7 6 5 5 5 5 6 7 7 7 7 8 8 9 10 10 10 10 10 9 9 9 9 8 7 7 7 6
20 21 20 20 21 22 22 22 22 23 22 20 19 19 18 17 16 14 12 12 11 9 7 7 5 5 5 5 6 6 7 8 8 9 9 9 10 10 10 10 9 8 8 8 7 7 7 6 6
18 18 19 20 21 22 22 22 23 23 22 21 20 19 19 18 16 15 14 13 12 10 8 7 7 6 5 5 6 6 7 8 8 9 9 9 9 9 10 9 9 8 8 7 7 7 7 6 6
16 17 18 19 20 21 21 22 23 23 23 22 21 20 20 19 17 16 14 14 13 11 9 8 7 6 6 6 7 7 8 8 8 8 9 8 8 8 8 8 8 8 8 7 7 7 6 6 6
15 16 15 18 19 20 21 22 22 23 23 23 22 22 20 19 18 16 15 14 13 12 10 9 7 6 5 5 6 7 7 7 7 8 9 8 8 7 7 7 8 8 8 7 7 7 6 5 5
13 13 13 16 18 19 21 22 22 22 23 23 23 22 21 20 18 17 15 14 13 12 11 10 8 7 6 6 6 6 6 7 7 7 8 8 7 7 7 7 7 7 7 7 7 6 5 5 5
11 11 11 14 16 18 19 21 21 22 23 22 22 22 21 20 18 17 16 14 13 12 11 10 9 8 7 6 5 6 6 6 6 6 7 7 7 7 6 6 6 6 7 7 6 5 5 5 5
8 9 10 12 13 15 17 19 21 21 21 21 21 21 21 19 18 17 16 15 13 12 11 10 10 9 8 6 5 5 5 5 5 6 6 7 7 6 6 6 6 6 6 6 5 5 5 5 4
5 6 8 9 11 13 15 17 19 20 19 20 20 20 21 19 18 17 16 14 13 12 11 11 10 9 9 7 6 5 4 4 5 5 5 6 6 5 6 5 5 5 5 5 4 4 4 4 4
3 4 5 7 9 10 13 15 17 18 18 18 19 19 19 19 18 17 15 15 13 12 12 11 10 10 9 8 7 6 5 4 4 4 5 5 5 5 5 5 5 5 4 5 5 4 4 4 4
2 1 2 4 6 8 10 13 15 16 16 17 17 18 18 18 17 16 15 14 14 13 12 11 10 10 9 8 8 7 6 5 4 4 4 4 5 5 4 4 5 5 5 5 4 4 4 4 4
5 2 1 2 4 5 7 10 11 13 14 15 16 16 17 16 16 16 15 14 14 13 13 12 11 11 10 9 8 7 7 6 5 4 3 3 3 3 4 5 5 5 5 5 4 4 4 4 4
7 5 4 3 2 3 5 6 8 10 11 13 14 15 15 15 15 14 14 14 14 13 13 13 12 11 10 10 8 7 6 6 6 5 4 3 3 2 2 4 4 4 5 5 4 4 4 4 5
10 9 7 5 3 2 2 4 6 7 9 10 12 13 14 14 13 13 13 12 13 13 13 12 11 10 10 9 9 8 6 6 5 4 3 2 2 2 2 3 3 4 4 5 5 5 5 5 5
13 11 9 8 6 4 2 3 4 5 7 7 9 11 12 13 12 12 12 11 11 12 12 12 11 10 9 9 9 8 7 6 5 5 4 3 2 1 1 2 2 2 3 4 5 5 5 5 5
15 13 11 10 9 7 5 4 4 5 6 6 7 9 10 11 12 11 11 11 11 11 11 11 10 10 9 9 9 8 7 7 5 4 4 4 2 1 0 1 1 1 2 3 4 4 5 6 7
18 16 14 13 11 10 7 6 6 5 6 6 7 8 8 10 11 11 10 10 10 10 10 10 9 9 9 9 8 8 7 7 6 5 5 4 3 2 1 2 2 2 3 3 4 5 6 6 6
20 19 18 15 13 11 9 8 9 7 6 7 7 7 7 8 10 10 10 10 9 9 9 9 9 9 8 8 8 7 7 7 6 6 5 4 4 4 3 3 3 3 3 4 4 5 6 6 7
22 21 20 18 16 14 13 10 10 10 8 8 8 8 7 8 9 9 10 10 9 9 9 9 9 8 8 8 8 8 7 6 7 7 6 5 4 4 4 4 4 3 4 4 5 6 6 7 7
24 23 22 21 19 18 16 14 12 11 10 9 9 9 8 8 9 9 9 9 8 9 8 8 8 8 8 8 8 7 7 7 6 6 6 6 6 5 5 5 5 5 5 5 6 7 7 8 8
26 23 21 20 20 20 19 17 15 13 12 11 11 10 10 9 9 10 9 9 8 8 8 8 8 8 7 7 7 7 7 7 7 6 6 6 7 7 6 6 6 6 6 7 7 7 9 9 10
28 25 23 20 19 18 21 20 17 15 14 14 14 13 12 11 10 11 10 9 9 8 8 8 7 7 7 7 7 7 7 7 7 7 7 7 7 7 7 7 7 8 8 8 8 8 8 9 10
29 27 24 23 22 20 19 20 18 18 16 15 15 15 13 12 11 11 11 10 10 9 9 9 8 8 8 8 7 7 8 8 8 8 8 8 8 8 8 8 8 8 9 9 9 9 9 10 10
30 28 27 25 23 22 21 20 19 19 17 16 16 16 14 14 12 11 11 11 10 10 10 10 10 10 9 8 8 8 8 8 9 9 9 10 10 10 10 9 9 10 10 10 11 11 11 11 10
30 30 29 26 25 23 20 19 19 19 17 16 16 16 16 15 15 14 13 13 12 12 12 12 12 11 11 10 9 9 9 9 9 9 10 11 11 12 12 11 11 12 12 12 12 11 12 12 11
30 29 28 27 26 26 23 21 22 20 18 17 18 17 16 16 16 16 16 15 15 15 14 14 13 13 13 12 11 10 10 11 11 10 11 12 13 13 13 13 13 13 13 14 14 13 12 12 12
Wind_Direction
62 60 59 60 61 59 60 61 61 60 60 60 61 61 61 62 65 68 71 75 77 72 81 104 120 125 129 133 130 128 126 130 135 136 137 140 140 138 140 141 140 143 147 146 144 143 144 145 144
61 60 60 60 62 59 60 60 60 60 58 58 59 60 60 58 58 60 63 67 72 70 73 98 121 127 134 138 135 129 129 132 135 137 136 137 138 140 144 145 141 140 141 141 143 146 148 148 145
61 60 60 60 61 61 61 60 60 59 56 55 56 57 56 54 52 53 54 57 63 67 75 100 116 125 135 140 140 136 133 132 132 134 136 137 139 140 142 141 139 136 137 140 139 145 146 143 143
62 62 60 60 60 61 62 61 60 58 55 54 54 55 54 51 49 49 50 52 54 66 73 97 113 129 129 134 138 139 134 132 134 134 134 139 143 143 142 134 136 137 137 139 139 141 145 140 139
64 63 60 59 60 61 61 61 60 58 56 54 54 55 53 50 48 47 49 51 53 63 72 85 93 107 130 130 133 137 139 136 135 136 139 141 138 136 142 139 138 139 139 137 137 137 142 143 144
65 63 63 61 60 60 60 60 60 59 56 54 53 53 52 51 49 49 51 52 52 60 69 77 86 100 116 129 137 137 140 139 138 138 146 147 143 140 141 140 141 141 140 139 138 141 143 144 146
70 67 63 62 61 59 59 59 58 58 56 54 52 52 51 50 49 50 53 55 57 60 67 72 76 91 108 122 136 129 136 137 140 143 145 145 141 139 144 143 141 141 144 145 145 148 146 147 150
71 66 60 61 61 59 58 58 58 57 55 54 53 52 50 50 50 50 53 55 56 59 64 66 69 80 100 115 128 133 130 135 141 142 144 145 141 139 139 142 142 143 146 148 145 147 147 149 155
71 67 61 60 60 59 58 58 57 56 55 54 53 52 51 50 49 49 53 54 55 57 61 63 68 73 92 111 125 133 132 132 136 143 146 148 142 141 141 143 143 143 145 146 147 153 153 154 154
72 71 64 62 60 59 58 57 56 55 54 53 52 51 50 49 49 48 51 53 54 55 59 64 68 75 86 101 120 129 129 130 132 142 149 149 146 146 147 145 145 146 148 147 147 154 157 155 151
72 73 67 63 60 59 57 55 53 53 52 50 50 50 49 48 48 47 49 51 53 54 56 61 67 75 82 93 108 119 128 132 132 138 150 153 148 146 147 147 147 148 151 151 152 157 158 152 149
76 69 66 62 59 58 56 54 51 50 49 48 48 48 48 47 47 47 47 49 51 53 55 57 62 67 72 83 97 108 126 135 137 143 145 149 147 146 149 151 149 148 148 149 159 165 164 157 150
82 68 62 60 59 58 54 52 50 48 47 46 46 46 45 45 45 45 46 46 49 52 53 56 59 61 63 70 79 88 110 131 142 146 146 152 155 155 156 161 160 157 161 162 165 165 164 163 158
104 76 62 63 59 56 54 51 49 46 44 44 44 44 43 42 42 42 44 44 46 49 50 53 55 57 58 62 70 73 84 112 126 139 147 155 162 162 168 170 171 175 175 173 171 165 174 174 174
174 111 65 57 57 56 53 50 47 46 43 41 41 40 40 39 39 40 42 43 43 44 47 49 51 53 56 60 66 67 73 86 104 121 143 156 168 174 178 180 181 183 179 176 175 180 186 188 192
216 212 319 12 41 47 51 45 41 42 41 38 37 36 36 37 37 38 41 42 42 42 43 46 48 50 52 55 57 61 72 79 86 98 121 147 161 176 184 182 182 184 187 186 187 192 195 201 210
229 224 241 281 330 17 40 43 33 34 37 37 33 31 31 33 35 36 38 39 40 40 39 41 44 47 50 50 49 53 66 74 78 84 97 116 131 143 161 185 186 193 198 200 202 204 209 218 224
228 227 239 256 270 309 13 24 21 23 29 31 28 25 25 26 30 32 34 36 37 37 37 38 40 45 47 47 45 50 59 65 67 69 81 106 128 137 148 177 192 199 203 206 211 217 223 234 233
223 225 233 246 256 270 302 343 353 2 12 17 18 17 16 18 20 24 28 31 31 31 32 34 36 38 41 41 42 43 46 47 50 54 58 74 98 123 143 179 200 202 206 216 219 222 227 238 246
230 232 238 250 257 263 272 297 317 336 351 358 1 1 5 7 11 15 19 23 25 26 27 29 30 30 31 33 35 34 33 34 36 38 41 50 64 81 70 294 256 234 227 225 229 234 236 241 247
232 234 239 248 258 262 271 289 295 306 326 338 342 343 350 355 359 3 7 10 15 19 21 24 24 23 24 24 25 28 30 33 31 26 25 25 25 10 313 303 308 282 255 246 250 249 250 256 257
236 240 240 247 252 260 265 268 281 288 300 315 324 327 331 337 345 351 355 358 2 7 14 17 18 18 17 18 18 19 21 23 20 16 12 9 6 357 340 333 330 286 269 263 263 263 263 264 264
233 239 242 246 249 252 261 260 268 278 282 297 311 315 317 321 328 339 346 351 354 358 4 10 12 13 13 14 17 17 16 16 15 14 10 3 352 346 343 328 319 313 283 269 270 271 272 273 271
235 239 243 246 248 252 255 258 261 270 273 278 289 299 303 308 313 323 334 340 344 346 351 358 2 5 8 7 8 8 10 11 10 10 10 2 354 347 327 322 309 298 292 281 276 275 273 275 274
237 238 242 245 247 250 256 256 257 263 266 267 275 285 287 296 303 309 319 325 327 334 339 345 348 351 357 358 357 356 356 356 358 1 356 350 348 344 336 318 313 302 297 294 286 279 274 273 275
238 236 235 240 248 255 261 256 260 264 264 264 268 277 282 288 295 299 304 308 311 316 324 329 333 337 341 341 342 342 342 342 343 346 347 343 342 341 339 330 319 309 302 299 296 288 280 278 278
237 236 235 241 245 247 252 258 261 263 264 262 265 271 276 279 286 293 293 295 300 304 311 316 319 320 321 324 327 326 327 328 329 331 333 333 335 335 331 322 316 310 303 297 294 291 289 285 281
236 237 238 236 241 246 252 256 260 264 265 263 262 265 271 270 271 280 283 289 295 296 297 302 305 307 306 308 314 315 315 317 318 319 325 326 324 321 320 317 312 307 301 297 295 289 290 286 285
237 238 239 239 238 243 249 253 259 260 260 258 258 260 264 265 266 273 277 283 289 294 291 296 297 297 297 297 298 302 304 308 309 310 315 319 319 316 311 308 307 304 303 302 300 295 291 287 287
236 238 239 239 242 242 244 250 257 257 255 254 256 258 261 262 264 270 273 278 284 289 289 293 292 293 296 293 291 294 296 299 302 305 308 312 316 316 313 308 303 301 299 300 298 293 290 287 288
Height
5906 5904 5903 5902 5901 5901 5898 5896 5893 5891 5889 5888 5886 5884 5883 5882 5882 5883 5879 5877 5877 5876 5876 5875 5875 5876 5876 5876 5876 5876 5876 5877 5877 5878 5879 5880 5880 5881 5882 5883 5883 5885 5886 5887 5887 5889 5890 5891 5891
5908 5907 5906 5905 5905 5904 5901 5898 5895 5893 5891 5889 5887 5886 5884 5883 5882 5881 5879 5878 5878 5877 5877 5876 5876 5877 5877 5877 5877 5877 5877 5878 5878 5879 5880 5880 5881 5882 5882 5883 5884 5885 5886 5887 5888 5889 5890 5891 5892
5911 5910 5909 5908 5908 5906 5903 5900 5898 5895 5893 5891 5889 5887 5886 5884 5883 5882 5880 5879 5879 5878 5878 5877 5877 5878 5877 5877 5878 5878 5878 5879 5879 5880 5880 5881 5882 5882 5883 5883 5885 5886 5887 5888 5889 5890 5891 5892 5892
5914 5914 5913 5913 5910 5908 5905 5903 5900 5897 5895 5893 5891 5889 5887 5886 5884 5883 5881 5880 5879 5879 5878 5878 5878 5878 5878 5878 5879 5879 5879 5880 5880 5880 5881 5882 5882 5883 5884 5884 5885 5886 5887 5888 5889 5890 5891 5892 5893
5917 5917 5917 5916 5913 5910 5907 5905 5902 5900 5897 5895 5893 5891 5889 5887 5886 5884 5883 5882 5881 5880 5879 5879 5879 5878 5879 5879 5880 5880 5880 5881 5881 5881 5882 5883 5883 5884 5884 5885 5886 5887 5888 5889 5890 5891 5892 5893 5894
5921 5921 5922 5919 5916 5913 5910 5907 5905 5902 5900 5897 5895 5893 5891 5889 5887 5886 5885 5883 5882 5881 5881 5880 5880 5880 5880 5880 5881 5881 5881 5881 5882 5882 5883 5884 5884 5885 5885 5886 5887 5888 5889 5890 5891 5892 5893 5893 5894
5925 5925 5923 5921 5918 5916 5913 5910 5907 5905 5902 5900 5898 5895 5893 5891 5890 5888 5887 5885 5884 5883 5882 5882 5881 5881 5881 5881 5881 5882 5881 5882 5882 5883 5883 5884 5885 5885 5886 5887 5888 5889 5890 5890 5891 5892 5893 5894 5895
5926 5928 5926 5924 5921 5919 5916 5912 5910 5907 5905 5903 5900 5898 5896 5894 5892 5890 5889 5888 5886 5885 5884 5883 5883 5882 5882 5882 5882 5882 5883 5883 5883 5884 5884 5885 5885 5886 5887 5888 5889 5889 5890 5891 5892 5893 5893 5894 5895
5928 5931 5929 5926 5923 5921 5918 5915 5913 5910 5908 5905 5903 5901 5899 5896 5894 5893 5891 5890 5889 5888 5886 5885 5884 5884 5883 5883 5883 5883 5884 5884 5884 5884 5885 5885 5886 5886 5887 5889 5889 5890 5891 5891 5892 5893 5894 5895 5895
5931 5933 5930 5928 5925 5923 5921 5918 5916 5913 5910 5908 5906 5903 5901 5899 5897 5895 5894 5892 5891 5890 5888 5887 5886 5885 5885 5884 5884 5884 5884 5884 5885 5885 5885 5886 5887 5887 5888 5889 5890 5890 5891 5892 5893 5894 5894 5895 5895
5933 5933 5931 5929 5927 5925 5923 5920 5918 5915 5913 5911 5909 5906 5904 5901 5899 5898 5896 5895 5893 5892 5891 5889 5888 5887 5886 5886 5885 5885 5886 5886 5886 5886 5887 5887 5888 5888 5889 5890 5890 5891 5891 5892 5893 5894 5895 5895 5896
5934 5934 5932 5931 5929 5927 5925 5923 5920 5918 5917 5914 5912 5909 5906 5904 5902 5900 5899 5897 5895 5894 5893 5891 5890 5889 5888 5887 5887 5886 5887 5887 5887 5887 5887 5888 5888 5889 5889 5890 5890 5891 5892 5892 5893 5894 5895 5895 5896
5935 5934 5933 5932 5930 5929 5927 5925 5923 5921 5919 5917 5914 5912 5909 5907 5905 5903 5901 5899 5898 5896 5895 5893 5892 5891 5889 5889 5888 5887 5887 5887 5887 5888 5888 5888 5889 5889 5890 5890 5891 5891 5892 5893 5893 5894 5895 5896 5896
5935 5935 5934 5933 5932 5930 5929 5927 5925 5923 5921 5919 5917 5914 5912 5910 5908 5906 5904 5902 5900 5898 5897 5895 5894 5892 5891 5890 5889 5888 5888 5888 5888 5888 5888 5889 5889 5890 5890 5891 5891 5892 5892 5893 5893 5894 5895 5896 5896
5935 5936 5935 5934 5933 5932 5931 5930 5927 5925 5923 5921 5919 5917 5915 5912 5910 5908 5906 5904 5902 5900 5899 5897 5895 5894 5893 5891 5890 5889 5889 5888 5888 5888 5888 5889 5889 5890 5890 5891 5891 5892 5892 5893 5893 5894 5895 5895 5896
5936 5936 5937 5936 5934 5933 5934 5932 5930 5927 5925 5923 5921 5919 5917 5915 5913 5910 5908 5906 5904 5902 5900 5899 5897 5896 5894 5893 5892 5891 5890 5889 5889 5889 5889 5889 5889 5890 5890 5891 5891 5892 5892 5893 5893 5894 5894 5895 5896
5936 5938 5937 5936 5935 5934 5934 5933 5931 5929 5927 5925 5923 5921 5919 5917 5915 5913 5910 5908 5906 5904 5902 5900 5899 5897 5896 5894 5893 5892 5891 5891 5890 5890 5889 5889 5889 5890 5890 5890 5891 5891 5892 5893 5893 5893 5894 5894 5895
5936 5936 5936 5936 5935 5934 5934 5933 5932 5930 5928 5926 5925 5923 5921 5919 5917 5914 5912 5910 5908 5906 5904 5902 5901 5899 5897 5896 5894 5893 5892 5892 5891 5891 5890 5890 5890 5890 5890 5890 5891 5891 5891 5892 5892 5893 5893 5893 5894
5932 5934 5935 5935 5934 5934 5934 5933 5932 5930 5929 5927 5926 5924 5923 5921 5918 5916 5914 5912 5910 5908 5906 5904 5902 5901 5899 5898 5896 5895 5894 5893 5892 5892 5891 5890 5890 5890 5890 5890 5891 5891 5891 5891 5892 5892 5892 5893 5893
5929 5931 5933 5933 5932 5932 5933 5933 5932 5930 5929 5928 5926 5925 5924 5922 5919 5917 5915 5913 5911 5909 5907 5905 5903 5902 5900 5899 5897 5896 5895 5894 5893 5892 5891 5891 5890 5890 5890 5890 5890 5890 5890 5891 5891 5891 5891 5892 5892
5926 5928 5930 5931 5930 5931 5932 5932 5931 5930 5929 5928 5926 5925 5924 5922 5920 5918 5916 5914 5912 5910 5908 5906 5904 5903 5901 5900 5898 5897 5896 5895 5894 5893 5892 5891 5890 5890 5890 5890 5890 5890 5890 5890 5890 5890 5890 5891 5891
5923 5924 5926 5927 5928 5930 5930 5932 5931 5929 5928 5927 5926 5925 5923 5922 5921 5919 5917 5915 5913 5911 5909 5907 5905 5904 5902 5900 5899 5898 5897 5895 5894 5893 5892 5891 5890 5890 5890 5889 5889 5889 5889 5889 5889 5889 5889 5889 5889
5919 5920 5922 5924 5925 5927 5928 5929 5931 5928 5927 5926 5925 5924 5923 5921 5920 5919 5917 5915 5913 5911 5909 5907 5906 5904 5903 5901 5900 5898 5897 5896 5894 5893 5892 5891 5890 5890 5889 5889 5888 5888 5887 5888 5888 5888 5887 5887 5887
5913 5916 5918 5920 5923 5924 5924 5926 5927 5926 5925 5924 5924 5923 5922 5921 5919 5918 5917 5915 5913 5911 5909 5908 5906 5904 5903 5902 5900 5899 5897 5896 5894 5893 5892 5891 5890 5889 5889 5888 5887 5887 5886 5886 5886 5885 5885 5885 5884
5909 5913 5916 5918 5919 5921 5920 5921 5923 5922 5921 5921 5921 5921 5920 5919 5918 5917 5916 5914 5913 5911 5909 5907 5906 5904 5903 5901 5900 5899 5897 5896 5894 5893 5892 5891 5889 5888 5887 5887 5886 5885 5885 5884 5883 5883 5883 5882 5882
5904 5909 5913 5916 5917 5918 5916 5916 5918 5918 5917 5918 5918 5918 5917 5917 5916 5915 5914 5913 5912 5910 5909 5907 5905 5904 5902 5901 5899 5898 5897 5895 5894 5893 5891 5890 5889 5887 5886 5885 5884 5883 5883 5882 5881 5881 5880 5879 5879
5898 5901 5907 5910 5911 5913 5913 5912 5912 5912 5913 5914 5914 5914 5914 5914 5913 5913 5912 5911 5910 5909 5908 5906 5905 5903 5901 5900 5898 5897 5896 5895 5893 5892 5891 5889 5888 5887 5885 5884 5883 5882 5881 5880 5879 5878 5877 5877 5876
5892 5895 5899 5903 5905 5907 5908 5908 5909 5908 5909 5909 5910 5910 5910 5910 5910 5910 5909 5909 5908 5907 5905 5904 5903 5902 5900 5899 5897 5896 5895 5893 5892 5891 5889 5888 5887 5885 5884 5882 5881 5880 5879 5877 5876 5875 5874 5873 5873
5886 5889 5892 5896 5899 5902 5904 5907 5903 5903 5904 5905 5905 5906 5906 5906 5907 5907 5906 5906 5905 5904 5903 5902 5900 5899 5898 5897 5896 5894 5893 5891 5890 5889 5888 5886 5885 5883 5882 5880 5879 5877 5876 5875 5874 5872 5871 5870 5870
5879 5882 5886 5890 5891 5893 5897 5902 5897 5898 5899 5900 5901 5901 5902 5902 5902 5903 5903 5902 5902 5901 5900 5898 5897 5896 5895 5894 5893 5892 5891 5889 5888 5887 5885 5884 5882 5881 5879 5878 5876 5874 5873 5872 5871 5869 5868 5867 5866